Location: Assche-ter-Heiden
(50.9174°N, 4.1574°E)
Time: 01:24:29
(UTC+00:00)

SL-8 Rocket - Pass Details

Date: 20 January 2020
Orbit: 956 x 991 km, 82.9° (Epoch: 28 February)

Event Time Altitude Azimuth Distance (km) Brightness Sun altitude
Rises 05:33:33 0° 349° (N) 3,686 6.8 -18.8°
Reaches altitude 10° 05:36:05 10° 349° (N) 2,729 6.1 -18.4°
Maximum altitude 05:42:20 83° 263° (W) 979 3.9 -17.4°
Drops below altitude 10° 05:48:30 10° 176° (S) 2,689 6.5 -16.4°
Sets 05:50:58 0° 175° (S) 3,628 7.2 -16.1°
